Regional Weather Roundup
Issued by NWS Little Rock, AR

Home | Current Version | Previous Version | Text Only | Print | Product List | Glossary On
Versions: 1 2 3 4 5 6 7 8 9 10 11 12 13 14 15 16 17 18 19 20 21 22 23 24 25 26
625
ASUS44 KLZK 221305
RWRLZK

WEATHER ROUNDUP FOR ARKANSAS
NATIONAL WEATHER SERVICE LITTLE ROCK AR
800 AM CDT FRI MAY 22 2015

NOTE: "FAIR" INDICATES FEW OR NO CLOUDS BELOW 12,000 FEET WITH NO
SIGNIFICANT WEATHER AND/OR OBSTRUCTIONS TO VISIBILITY.

ARZ001-003-010-029-221400-
NORTHWEST ARKANSAS

CITY           SKY/WX    TMP DP  RH WIND       PRES   REMARKS
FAYETTEVILLE   SUNNY     50  48  93 MISG      30.27R
FORT SMITH     MOSUNNY   56  51  84 E9        30.27R
HARRISON       SUNNY     50  48  93 SE6       30.29R
BENTONVILLE    MOSUNNY   54  46  76 S6        30.27S
ROGERS         MOSUNNY   52  48  86 SE6       30.28R
SILOAM SPGS    MOSUNNY   52  43  71 S6        30.28R
HIGHFILL       MOSUNNY   53  48  83 S7        30.26R
SPRINGDALE     MOSUNNY   52  46  82 S7        30.29R
$$

ARZ004-005-016-221400-
NORTH CENTRAL ARKANSAS

CITY           SKY/WX    TMP DP  RH WIND       PRES   REMARKS
BATESVILLE     SUNNY     52  48  87 CALM      30.30F
FLIPPIN        PTSUNNY   46  46 100 CALM      30.28S
MTN HOME       SUNNY     51  49  92 S5        30.29R
$$

ARZ040-041-221400-
WEST CENTRAL ARKANSAS

CITY           SKY/WX    TMP DP  RH WIND       PRES   REMARKS
MENA           MOSUNNY   55  50  82 NE3       30.27S
MOUNT IDA      SUNNY     54  49  83 CALM      30.25F
$$

ARZ009-017-025-026-028-221400-
NORTHEAST ARKANSAS

CITY           SKY/WX    TMP DP  RH WIND       PRES   REMARKS
CORNING          N/A     50  48  93 CALM      30.32R
JONESBORO      SUNNY     54  52  93 CALM      30.31R
NEWPORT        SUNNY     55  50  83 CALM      30.32R
WALNUT RIDGE   SUNNY     52  46  82 NW3       30.32R
BLYTHEVILLE    SUNNY     56  50  80 N3        30.30R
$$

ARZ022-023-033-042-044-221400-
CENTRAL ARKANSAS

CITY           SKY/WX    TMP DP  RH WIND       PRES   REMARKS
LITTLE ROCK    PTSUNNY   56  49  77 E5        30.30R
N LITTLE ROCK    N/A     56  52  88 E6        30.30R
JACKSONVILLE   MOSUNNY   55  51  87 NE3       30.30R
HOT SPRINGS    MOSUNNY   54  48  80 SE5       30.28S
RUSSELLVILLE   SUNNY     55  51  86 CALM      30.30R
CLINTON        FAIR      54  50  87 CALM      30.32S
$$

ARZ036-221400-
EAST ARKANSAS

CITY           SKY/WX    TMP DP  RH WIND       PRES   REMARKS
WEST MEMPHIS   SUNNY     55  50  83 E6        30.30R
$$

ARZ050-053-066-070-073-221400-
SOUTHWEST ARKANSAS

CITY           SKY/WX    TMP DP  RH WIND       PRES   REMARKS
ARKADELPHIA    FAIR      56  53  89 VRB5      30.30R
CAMDEN         MOSUNNY   54  48  82 N5        30.29R
TEXARKANA      SUNNY     54  50  86 E6        30.25S
EL DORADO      MOSUNNY   53  49  86 NE8       30.27S
DE QUEEN       SUNNY     55  50  83 E6        30.25S
$$

ARZ056-057-069-221400-
SOUTHEAST ARKANSAS

CITY           SKY/WX    TMP DP  RH WIND       PRES   REMARKS
PINE BLUFF     MOSUNNY   54  49  83 NE10      30.29F
STUTTGART      MOSUNNY   55  48  76 E7        30.30F
MONTICELLO     MOSUNNY   54  50  86 E9        30.27S

$$





USA.gov is the U.S. government's official web portal to all federal, state and local government web resources and services.